Rochelle, IL

10:02 PM CDT on March 27, 2017 (GMT -0500)
Rochelle

Weather History for KRPJ - February, 2013

Change the Weather History Date:

Thursday, February 28, 2013

  Actual Average (KRFD) Record (KRFD)
Temperature  
Mean Temperature 30 °F -  
Max Temperature 34 °F 39 °F 62 °F (2016)
Min Temperature 26 °F 21 °F -16 °F (2015)
Degree Days  
Heating Degree Days 34    
Moisture  
Dew Point 28 °F    
Average Humidity 86    
Maximum Humidity 97    
Minimum Humidity 77    
Precipitation  
Precipitation 0.00 in - - ()
Sea Level Pressure  
Sea Level Pressure 29.95 in    
Wind  
Wind Speed 12 mph (North)    
Max Wind Speed 16 mph    
Max Gust Speed 21 mph    
Visibility 9 miles    
Events Rain , Snow    
Averages and records for this station are not official NWS values.
T = Trace of Precipitation, MM = Missing Value Source: NWS Daily Summary

Daily Weather History Graph

Daily Weather History Graph

Search for Another Location

Airport or City:

Trip Planner

Search our weather history database for the weather conditions in past years. The results will help you decide how hot, cold, wet, or windy it might be!

Date:

Astronomy

Feb. 28, 2013 Rise Set
Actual Time 6:32 AM CST 5:45 PM CST
Civil Twilight 6:04 AM CST 6:13 PM CST
Nautical Twilight 5:32 AM CST 6:46 PM CST
Astronomical Twilight 4:59 AM CST 7:18 PM CST
Moon 9:16 PM CST 7:38 AM CST
Length of Visible Light 12h 09m
Length of Day
11h 13m
Waning Gibbous, 90% of the Moon is Illuminated
Feb 28
Waning Gibbous
Mar 4
Last Quarter
Mar 11
New
Mar 19
First Quarter
Mar 27
Full

Hourly Weather History & Observations

Time (CST) Temp. Windchill Dew Point Humidity Pressure Visibility Wind Dir Wind Speed Gust Speed Precip Events Conditions
12:35 AM 32.0 °F 22.5 °F 30.2 °F 93% 29.76 in 7.0 mi NNW 12.7 mph - N/A   Overcast
12:55 AM 31.8 °F 22.8 °F 30.2 °F 94% 29.76 in 7.0 mi NNW 11.5 mph - N/A Rain Light Freezing Rain
1:15 AM 31.8 °F 22.8 °F 30.2 °F 94% 29.78 in 5.0 mi NNW 11.5 mph - N/A Rain Light Freezing Rain
1:35 AM 32.0 °F 23.0 °F 30.2 °F 93% 29.78 in 10.0 mi NNW 11.5 mph - N/A   Overcast
1:55 AM 32.0 °F 22.5 °F 30.2 °F 93% 29.78 in 10.0 mi NNW 12.7 mph - N/A   Overcast
2:15 AM 32.2 °F 22.7 °F 30.2 °F 92% 29.78 in 10.0 mi NNW 12.7 mph - N/A   Overcast
2:35 AM 32.2 °F 21.8 °F 30.2 °F 92% 29.79 in 10.0 mi NNW 15.0 mph - N/A Rain Light Rain
2:55 AM 32.2 °F 22.3 °F 30.2 °F 92% 29.79 in 10.0 mi NNW 13.8 mph - N/A   Overcast
3:15 AM 32.0 °F 22.1 °F 30.0 °F 92% 29.80 in 10.0 mi NNW 13.8 mph - N/A   Light Drizzle
3:35 AM 32.0 °F 22.1 °F 30.2 °F 93% 29.80 in 10.0 mi NNW 13.8 mph - N/A   Overcast
3:55 AM 32.0 °F 22.5 °F 30.6 °F 94% 29.81 in 7.0 mi NNW 12.7 mph - N/A Rain Light Rain
4:15 AM 31.8 °F 22.8 °F 30.9 °F 96% 29.81 in 5.0 mi NNW 11.5 mph 17.3 mph N/A Rain Light Freezing Rain
4:35 AM 31.8 °F 22.8 °F 30.9 °F 96% 29.83 in 5.0 mi NNW 11.5 mph - N/A Rain Light Freezing Rain
4:55 AM 31.8 °F 23.3 °F 31.1 °F 97% 29.84 in 3.0 mi NNW 10.4 mph - N/A Rain Light Freezing Rain
5:15 AM 32.0 °F 23.6 °F 31.1 °F 96% 29.84 in 5.0 mi NNW 10.4 mph - N/A Snow Light Snow
5:55 AM 32.0 °F 22.5 °F 30.2 °F 93% 29.85 in 7.0 mi NNW 12.7 mph - N/A Snow Light Snow
6:15 AM 32.0 °F 23.6 °F 30.2 °F 93% 29.86 in 7.0 mi NNW 10.4 mph - N/A Rain Light Rain
6:35 AM 32.0 °F 23.0 °F 30.2 °F 93% 29.86 in 10.0 mi North 11.5 mph - N/A Rain Light Rain
6:55 AM 32.0 °F 21.6 °F 29.8 °F 92% 29.87 in 10.0 mi North 15.0 mph - N/A   Overcast
7:15 AM 32.0 °F 22.1 °F 29.3 °F 90% 29.88 in 10.0 mi North 13.8 mph - N/A   Overcast
7:35 AM 32.0 °F 22.5 °F 29.5 °F 90% 29.89 in 10.0 mi North 12.7 mph 17.3 mph N/A   Overcast
7:55 AM 32.0 °F 23.0 °F 29.3 °F 90% 29.90 in 10.0 mi North 11.5 mph - N/A   Overcast
8:15 AM 32.0 °F 23.6 °F 29.3 °F 90% 29.91 in 10.0 mi NNW 10.4 mph - N/A   Overcast
8:35 AM 32.0 °F 22.1 °F 29.1 °F 89% 29.91 in 10.0 mi NNW 13.8 mph - N/A   Overcast
8:55 AM 32.2 °F 22.7 °F 29.1 °F 88% 29.92 in 10.0 mi North 12.7 mph - N/A   Overcast
9:15 AM 32.7 °F 23.4 °F 29.3 °F 87% 29.92 in 10.0 mi NNW 12.7 mph - N/A   Overcast
9:35 AM 32.7 °F 23.9 °F 29.3 °F 87% 29.93 in 10.0 mi North 11.5 mph - N/A   Overcast
9:55 AM 32.9 °F 23.2 °F 29.3 °F 87% 29.94 in 10.0 mi North 13.8 mph - N/A   Overcast
10:15 AM 32.9 °F 23.2 °F 29.3 °F 87% 29.94 in 10.0 mi North 13.8 mph - N/A   Overcast
10:35 AM 33.1 °F 23.9 °F 29.3 °F 86% 29.95 in 10.0 mi North 12.7 mph - N/A   Overcast
10:55 AM 33.3 °F 23.7 °F 29.3 °F 85% 29.95 in 10.0 mi North 13.8 mph - N/A   Overcast
11:15 AM 33.4 °F 23.9 °F 29.7 °F 86% 29.96 in 10.0 mi North 13.8 mph - N/A   Overcast
11:35 AM 33.8 °F 24.8 °F 29.8 °F 85% 29.96 in 10.0 mi North 12.7 mph - N/A   Overcast
11:55 AM 33.4 °F 23.5 °F 29.7 °F 86% 29.96 in 10.0 mi North 15.0 mph - N/A   Overcast
12:35 PM 33.4 °F 23.1 °F 29.8 °F 87% 29.96 in 10.0 mi North 16.1 mph - N/A   Overcast
12:55 PM 33.6 °F 23.7 °F 29.8 °F 86% 29.96 in 10.0 mi North 15.0 mph - N/A   Overcast
1:15 PM 33.3 °F 24.1 °F 29.8 °F 87% 29.97 in 10.0 mi North 12.7 mph - N/A   Overcast
1:35 PM 33.8 °F 24.8 °F 29.3 °F 84% 29.97 in 10.0 mi North 12.7 mph - N/A   Overcast
1:55 PM 33.8 °F 24.8 °F 28.4 °F 81% 29.98 in 10.0 mi North 12.7 mph - N/A   Overcast
2:15 PM 34.0 °F 24.6 °F 27.5 °F 77% 29.98 in 10.0 mi North 13.8 mph - N/A   Overcast
2:35 PM 33.4 °F 23.1 °F 29.1 °F 84% 29.99 in 10.0 mi North 16.1 mph - N/A   Overcast
2:55 PM 32.5 °F 23.7 °F 30.0 °F 90% 30.00 in 10.0 mi North 11.5 mph - N/A   Overcast
3:15 PM 32.0 °F 22.1 °F 30.2 °F 93% 30.00 in 4.0 mi North 13.8 mph - N/A   Overcast
3:35 PM 32.2 °F 23.2 °F 29.3 °F 89% 30.01 in 10.0 mi North 11.5 mph - N/A   Overcast
3:55 PM 33.1 °F 23.9 °F 26.6 °F 77% 30.01 in 10.0 mi North 12.7 mph - N/A   Overcast
4:15 PM 32.9 °F 23.7 °F 26.4 °F 77% 30.01 in 10.0 mi North 12.7 mph 19.6 mph N/A   Overcast
4:35 PM 32.5 °F 23.7 °F 26.8 °F 79% 30.02 in 10.0 mi North 11.5 mph - N/A   Overcast
4:55 PM 32.2 °F 23.2 °F 26.6 °F 80% 30.02 in 10.0 mi North 11.5 mph - N/A   Overcast
5:15 PM 32.0 °F 26.4 °F 26.6 °F 80% 30.04 in 10.0 mi North 5.8 mph - N/A   Overcast
5:35 PM 32.0 °F 24.8 °F 26.2 °F 79% 30.04 in 10.0 mi North 8.1 mph - N/A   Overcast
5:55 PM 32.0 °F 25.6 °F 26.1 °F 79% 30.04 in 10.0 mi NNE 6.9 mph - N/A   Overcast
6:15 PM 32.0 °F 24.2 °F 26.6 °F 80% 30.05 in 10.0 mi North 9.2 mph - N/A   Overcast
6:35 PM 32.0 °F 24.8 °F 26.8 °F 81% 30.06 in 10.0 mi North 8.1 mph - N/A   Overcast
7:15 PM 31.6 °F 22.1 °F 26.4 °F 81% 30.06 in 10.0 mi NNE 12.7 mph - N/A   Overcast
7:35 PM 31.1 °F 22.4 °F 26.4 °F 83% 30.06 in 10.0 mi NNE 10.4 mph - N/A   Overcast
7:55 PM 30.7 °F 20.4 °F 26.4 °F 84% 30.06 in 10.0 mi NNE 13.8 mph - N/A   Overcast
8:15 PM 30.2 °F 19.3 °F 26.2 °F 85% 30.06 in 10.0 mi NNE 15.0 mph - N/A   Overcast
8:35 PM 30.2 °F 19.8 °F 24.4 °F 79% 30.06 in 10.0 mi NNE 13.8 mph 20.7 mph N/A   Overcast
8:55 PM 29.8 °F 19.8 °F 23.5 °F 77% 30.06 in 10.0 mi NNE 12.7 mph - N/A   Overcast
9:15 PM 29.7 °F 19.6 °F 23.4 °F 77% 30.07 in 10.0 mi NNE 12.7 mph - N/A   Overcast
9:35 PM 29.3 °F 18.6 °F 23.0 °F 77% 30.08 in 10.0 mi NNE 13.8 mph - N/A   Overcast
9:55 PM 29.1 °F 19.4 °F 23.0 °F 78% 30.08 in 10.0 mi NNE 11.5 mph - N/A   Overcast
10:15 PM 28.8 °F 18.4 °F 23.4 °F 80% 30.08 in 10.0 mi NNE 12.7 mph - N/A   Light Freezing Rain
10:35 PM 28.2 °F 18.3 °F 23.0 °F 81% 30.09 in 10.0 mi NNE 11.5 mph - N/A   Light Freezing Rain
10:55 PM 27.9 °F 17.3 °F 23.0 °F 82% 30.09 in 10.0 mi NNE 12.7 mph - N/A   Overcast
11:15 PM 27.5 °F 19.3 °F 22.6 °F 82% 30.09 in 10.0 mi NE 8.1 mph - N/A   Overcast
11:35 PM 27.1 °F 16.4 °F 22.5 °F 83% 30.09 in 10.0 mi NNE 12.7 mph - N/A   Overcast
11:55 PM 26.6 °F 18.2 °F 22.1 °F 83% 30.09 in 10.0 mi North 8.1 mph - N/A   Overcast